[[{"header":{"parameterUnit":"m.s-1","parameterCategory":1,"la1":30.2991,"la2":30.254,"lo1":-89.0895,"lo2":-89.0444,"dy":0.0017,"dx":0.0017,"nx":28,"ny":28,"refTime":"2024-03-28T03:00:00:Z","depth":0,"parameterNumber":2,"parameterNumberName":"U-component_of_WINDS"},"data":[0,0,0,0,0,0,0,0,0,0,0,0,0,0,0,0,0,0,0,0,0,0,0,0,0,0,0,0,0,0,0,0,0,0,0,0,0,0,0,0,0,0,0,0,0,0,0,0,0,0,0,0,0,0,0,0,0,0,-3.8168,-3.8169,0,-3.8187,-3.8187,-3.8187,-3.811,-3.8108,-3.8106,-3.8103,-3.8122,-3.8125,-3.8127,0,0,0,0,0,0,0,0,0,0,0,0,0,-3.8069,-3.8072,-3.8168,-3.8169,-3.8169,-3.8186,-3.8187,-3.8187,-3.811,-3.8108,-3.8105,-3.8102,-3.8121,-3.8124,-3.8127,0,0,0,0,0,0,0,0,0,0,0,0,0,-3.8103,-3.8072,-3.8168,-3.8133,-3.813,-3.8186,-3.8187,-3.8187,-3.8111,-3.8108,-3.8104,-3.8101,-3.812,-3.8124,-3.8128,-3.8219,0,0,-3.814,-3.8141,0,0,0,0,0,0,0,0,-3.8101,-3.8106,-3.8138,-3.8135,-3.8132,-3.8143,-3.8158,-3.8198,-3.8112,-3.8118,-3.8103,-3.8099,-3.8132,-3.8134,-3.8145,-3.822,-3.8221,-3.814,-3.8142,-3.8144,-3.8145,0,0,0,0,0,0,0,-3.8099,-3.8105,-3.8175,-3.8138,-3.8135,-3.8117,-3.8118,-3.8166,-3.8144,-3.8117,-3.8112,-3.8115,-3.8129,-3.8142,-3.8145,-3.8221,-3.814,-3.8143,-3.8146,-3.8147,-3.8374,-3.8377,0,0,0,0,0,0,-3.8101,-3.8104,-3.8175,-3.8176,-3.8108,-3.8121,-3.8122,-3.8143,-3.8143,-3.814,-3.8118,-3.8111,-3.8137,-3.8141,-3.8145,-3.8252,-3.8144,-3.8148,-3.815,-3.837,-3.8375,-3.8379,0,0,0,0,0,0,-3.8099,-3.8108,-3.8174,-3.8138,-3.8145,-3.8126,-3.815,-3.8145,-3.8157,-3.8143,-3.8139,-3.8134,-3.8134,-3.814,-3.8202,-3.8252,-3.8149,-3.8153,-3.8366,-3.8372,-3.8377,-3.8467,0,0,0,0,0,0,-3.8096,-3.8108,-3.8141,-3.814,-3.8148,-3.823,-3.8153,-3.8148,-3.8164,-3.8155,-3.8157,-3.8155,-3.8132,-3.8196,-3.8206,-3.8255,-3.8156,-3.8361,-3.8368,-3.8375,-3.8459,-3.8475,-3.8488,0,0,0,0,0,-3.8093,-3.8166,-3.8144,-3.8153,-3.819,-3.8233,-3.8237,-3.821,-3.8168,-3.8202,-3.8194,-3.8154,-3.8246,-3.8203,-3.8213,-3.8265,-3.8358,-3.8366,-3.8374,-3.8453,-3.8472,-3.8488,0,0,0,0,0,0,-3.8173,-3.8165,-3.814,-3.8214,-3.8225,-3.822,-3.8261,-3.8231,-3.8253,-3.8244,-3.8209,-3.8211,-3.8279,-3.8278,-3.8231,-3.8354,-3.8295,-3.8305,-3.8351,-3.8369,-3.8383,-3.838,-3.8159,0,0,0,0,0,-3.82,-3.8235,-3.8226,-3.8293,-3.83,-3.8281,-3.8298,-3.8276,-3.8286,-3.829,-3.8286,-3.8297,-3.8328,-3.8349,-3.8377,-3.8461,-3.846,-3.8501,-3.8516,-3.8527,-3.8536,-3.858,-3.8598,-3.8406,-3.8406,-3.8406,0,0,-3.8254,-3.8254,-3.8278,-3.8309,-3.8315,-3.8352,-3.8284,-3.8327,-3.8355,-3.8296,-3.8353,-3.8352,-3.8362,-3.8436,-3.8468,-3.8437,-3.859,-3.8538,-3.8548,-3.8549,-3.8591,-3.8609,-3.8625,-3.8412,-3.841,-3.841,0,0,-3.8372,-3.8376,-3.8432,-3.844,-3.845,-3.8437,-3.8451,-3.8451,-3.8448,-3.8506,-3.8463,-3.8497,-3.8551,-3.856,-3.8571,-3.8698,-3.8662,-3.8708,-3.8782,-3.8826,-3.8841,-3.8854,-3.8898,-3.8914,-3.8718,-3.8718,-3.8718,0,-3.8438,-3.8493,-3.8465,-3.851,-3.8525,-3.8476,-3.8532,-3.8542,-3.856,-3.8572,-3.8539,-3.8607,-3.861,-3.8685,-3.8716,-3.8728,-3.8742,-3.8706,-3.8841,-3.8854,-3.8866,-3.8907,-3.8924,-3.8723,-3.8723,-3.8722,-3.8722,0,-3.8573,-3.8613,-3.8657,-3.8676,-3.8697,-3.8748,-3.8728,-3.8753,-3.8731,-3.8722,-3.8782,-3.8786,-3.8813,-3.8831,-3.8809,-3.8903,-3.8884,-3.8847,-3.8785,-3.889,-3.8928,-3.8944,-3.8731,-3.8729,-3.8727,-3.8726,0,0,-3.8737,-3.8743,-3.876,-3.8768,-3.8778,-3.8808,-3.8858,-3.8886,-3.8907,-3.8924,-3.8964,-3.9013,-3.898,-3.8993,-3.8973,-3.9012,-3.9111,-3.897,-3.897,-3.8994,-3.9214,-3.924,-3.9258,-3.9089,-3.9092,-3.9095,-3.9212,0,-3.8851,-3.8935,-3.8913,-3.8998,-3.9034,-3.899,-3.9034,-3.9045,-3.9039,-3.9069,-3.9064,-3.9098,-3.9052,-3.906,-3.9097,-3.9091,-3.9154,-3.9083,-3.9126,-3.9128,-3.9121,-3.9278,-3.9305,-3.9416,-3.9227,-3.923,-3.9232,0,-3.8994,-3.9016,-3.9104,-3.9109,-3.9124,-3.9163,-3.9188,-3.9218,-3.923,-3.9224,-3.9241,-3.9214,-3.9264,-3.9207,-3.9276,-3.9228,-3.9245,-3.9246,-3.9249,-3.9249,-3.9183,-3.928,-3.9451,-3.9466,-3.9255,-3.9253,-3.9252,0,-3.9102,-3.9155,-3.9214,-3.9224,-3.9231,-3.926,-3.9265,-3.9274,-3.9293,-3.9316,-3.9328,-3.9356,-3.9371,-3.9394,-3.9376,-3.9336,-3.9448,-3.9389,-3.9443,-3.9444,-3.9465,-3.9464,-3.9638,-3.9482,-3.9482,-3.9482,-3.9481,0,-3.923,-3.9285,-3.9263,-3.9299,-3.9361,-3.9336,-3.9398,-3.9397,-3.9407,-3.9443,-3.9408,-3.9443,-3.9418,-3.9452,-3.9439,-3.9497,-3.9505,-3.9501,-3.9496,-3.9502,-3.9502,-3.951,-3.9501,-3.9486,-3.9485,-3.9484,-3.9484,0,-3.9359,-3.9347,-3.9408,-3.9412,-3.9415,-3.9459,-3.9462,-3.9497,-3.949,-3.9537,-3.9546,-3.9536,-3.9574,-3.9559,-3.9599,-3.959,-3.9665,-3.9652,-3.966,-3.9656,-3.971,-3.9705,-3.9893,-3.9917,-3.9749,-3.975,-3.9752,0,-3.9439,-3.9481,-3.949,-3.9512,-3.9519,-3.9555,-3.9574,-3.9553,-3.9575,-3.9595,-3.9627,-3.9662,-3.9687,-3.975,-3.9746,-3.9777,-3.9763,-3.9827,-3.9767,-3.9772,-3.9761,-3.9757,-3.9761,-3.9838,-3.984,-3.9841,-3.9842,0,-3.9583,-3.9576,-3.9605,-3.9633,-3.9658,-3.9679,-3.9697,-3.9718,-3.9698,-3.9725,-3.9763,-3.9784,-3.9825,-3.986,-3.9888,-3.9894,-3.9865,-3.9862,-3.9876,-3.9881,-3.9883,-3.9881,-3.969,-3.9857,-3.9855,-3.9854,-3.9854,-3.9853,-3.9688,-3.9723,-3.9735,-3.977,-3.9782,-3.9801,-3.9833,-3.9832,-3.9863,-3.9895,-3.9882,-3.9926,-3.994,-3.9975,-3.9986,-4.002,-3.9995,-4.0016,-4.002,-4.0025,-4.0031,-3.9881,-4.0026,-4.0025,-4.0025,-4.0025,-4.0024,0,-3.9828,-3.9835,-3.9867,-3.9894,-3.9922,-3.9895,-3.9914,-3.9939,-3.9978,-3.9994,-4.0021,-4.0066,-4.0101,-4.0102,-4.0134,-4.0162,-4.015,-4.0171,-4.0167,-4.0168,-4.0053,-4.0036,-4.018,-4.018,-4.018,-4.018,-4.018,-4.018,-3.9904,-3.9961,-3.9956,-4.0021,-4.0027,-4.007,-4.0083,-4.0101,-4.0113,-4.0165,-4.0193,-4.0194,-4.0205,-4.0238,-4.0269,-4.0269,-4.0281,-4.0307,-4.0302,-4.0192,-4.0177,-4.0162,-4.0146,-4.0311,-4.0311,-4.0414,-4.0415,-4.0416]},{"header":{"parameterUnit":"m.s-1","parameterCategory":1,"la1":30.2991,"la2":30.254,"lo1":-89.0895,"lo2":-89.0444,"dy":0.0017,"dx":0.0017,"nx":28,"ny":28,"refTime":"2024-03-28T03:00:00:Z","depth":0,"parameterNumber":3,"parameterNumberName":"V-component_of_WINDS"},"data":[0,0,0,0,0,0,0,0,0,0,0,0,0,0,0,0,0,0,0,0,0,0,0,0,0,0,0,0,0,0,0,0,0,0,0,0,0,0,0,0,0,0,0,0,0,0,0,0,0,0,0,0,0,0,0,0,0,0,3.4307,3.4308,0,3.4316,3.4316,3.4316,3.4356,3.4356,3.4357,3.4358,3.4361,3.436,3.4359,0,0,0,0,0,0,0,0,0,0,0,0,0,3.4322,3.4322,3.4307,3.4308,3.4308,3.4316,3.4316,3.4316,3.4355,3.4357,3.4358,3.4359,3.4361,3.436,3.4359,0,0,0,0,0,0,0,0,0,0,0,0,0,3.4321,3.4321,3.4307,3.4328,3.433,3.4316,3.4316,3.4316,3.4355,3.4357,3.4358,3.4359,3.4362,3.436,3.4359,3.4323,0,0,3.4355,3.4355,0,0,0,0,0,0,0,0,3.4321,3.4321,3.4325,3.4327,3.4329,3.4336,3.4322,3.4318,3.4355,3.4346,3.4358,3.436,3.4351,3.4351,3.4349,3.4323,3.4323,3.4355,3.4355,3.4354,3.4354,0,0,0,0,0,0,0,3.4321,3.4321,3.4311,3.4325,3.4328,3.4336,3.4338,3.4321,3.434,3.4346,3.4349,3.435,3.4352,3.435,3.4349,3.4323,3.4355,3.4354,3.4353,3.4353,3.4269,3.4268,0,0,0,0,0,0,3.4319,3.432,3.431,3.4311,3.4329,3.4335,3.4337,3.4332,3.434,3.4343,3.4349,3.4352,3.4352,3.4351,3.435,3.4309,3.4354,3.4353,3.4352,3.4271,3.4269,3.4267,0,0,0,0,0,0,3.4319,3.4318,3.431,3.4316,3.4316,3.4333,3.4328,3.4332,3.433,3.4342,3.4345,3.4343,3.4353,3.4351,3.433,3.4309,3.4352,3.4351,3.4272,3.427,3.4268,3.4226,0,0,0,0,0,0,3.4319,3.4318,3.4305,3.4316,3.4316,3.4291,3.4327,3.4331,3.4328,3.4332,3.4338,3.434,3.4354,3.4332,3.4329,3.4308,3.435,3.4274,3.4271,3.4269,3.4229,3.4222,3.4216,0,0,0,0,0,3.432,3.4291,3.4304,3.4302,3.43,3.429,3.429,3.4307,3.4326,3.4313,3.4322,3.434,3.4312,3.4329,3.4326,3.4305,3.4276,3.4272,3.4269,3.4232,3.4223,3.4217,0,0,0,0,0,0,3.4274,3.4293,3.4307,3.4281,3.4284,3.4297,3.428,3.4298,3.4294,3.4297,3.4318,3.4319,3.4294,3.4298,3.4316,3.4271,3.4297,3.4293,3.427,3.4262,3.4256,3.4255,3.4349,0,0,0,0,0,3.4262,3.4253,3.4269,3.4244,3.4246,3.4263,3.4259,3.4273,3.4275,3.4276,3.4283,3.4283,3.4275,3.4269,3.4262,3.423,3.4232,3.4214,3.4208,3.4203,3.4199,3.4183,3.4175,3.4256,3.4256,3.4256,0,0,3.4234,3.4243,3.4236,3.4236,3.4239,3.4229,3.4263,3.425,3.4243,3.4273,3.4255,3.426,3.4262,3.4235,3.4224,3.4237,3.4177,3.4199,3.4194,3.4193,3.4179,3.4171,3.4164,3.4254,3.4254,3.4255,0,0,3.418,3.4186,3.4167,3.4171,3.4177,3.4189,3.4184,3.4195,3.42,3.4182,3.4206,3.4196,3.4181,3.4182,3.418,3.4129,3.4146,3.4126,3.4093,3.4077,3.4071,3.4065,3.4047,3.404,3.4122,3.4122,3.4122,0,3.4144,3.4131,3.4154,3.4141,3.414,3.417,3.4151,3.4153,3.4155,3.4153,3.4169,3.4152,3.4155,3.413,3.4118,3.4116,3.4111,3.4125,3.407,3.4065,3.406,3.4043,3.4036,3.4119,3.412,3.412,3.412,0,3.4088,3.4079,3.4062,3.4067,3.4064,3.4048,3.4067,3.4061,3.4076,3.4086,3.4068,3.4073,3.4069,3.4064,3.4077,3.4041,3.4049,3.4067,3.4093,3.405,3.4034,3.4027,3.4116,3.4117,3.4118,3.4118,0,0,3.4003,3.4022,3.4016,3.4019,3.4029,3.4022,3.4007,3.4005,3.3999,3.4001,3.3988,3.3976,3.3994,3.3992,3.4006,3.3992,3.3952,3.4012,3.4013,3.4001,3.3913,3.3899,3.3891,3.3964,3.3963,3.3962,3.3912,0,3.3951,3.3928,3.3949,3.3921,3.3913,3.3943,3.393,3.3934,3.3944,3.3937,3.3947,3.3939,3.3963,3.3962,3.395,3.3959,3.3934,3.3963,3.3951,3.395,3.3949,3.3882,3.3867,3.382,3.3906,3.3905,3.3905,0,3.3886,3.3888,3.386,3.3874,3.3871,3.3859,3.386,3.3854,3.3859,3.3867,3.3867,3.3885,3.387,3.3897,3.3877,3.3897,3.3893,3.3897,3.3896,3.3894,3.3924,3.3879,3.3806,3.3798,3.3895,3.3896,3.3896,0,3.3827,3.3822,3.3805,3.3807,3.3822,3.3813,3.3819,3.3827,3.3824,3.3824,3.3823,3.382,3.3819,3.3816,3.3832,3.3851,3.381,3.3839,3.3816,3.3815,3.3805,3.3805,3.373,3.3803,3.3804,3.3804,3.3804,0,3.3766,3.3748,3.3779,3.3768,3.3749,3.3773,3.3753,3.3762,3.3768,3.3759,3.3785,3.3775,3.3798,3.3791,3.3804,3.3786,3.3785,3.379,3.3793,3.3787,3.3787,3.3785,3.3788,3.3802,3.3802,3.3803,3.3803,0,3.3696,3.3716,3.37,3.3717,3.3721,3.3706,3.372,3.3711,3.3723,3.3712,3.371,3.3729,3.3722,3.3739,3.3734,3.3743,3.3717,3.3726,3.3715,3.3718,3.3694,3.3696,3.3614,3.3604,3.3685,3.3684,3.3683,0,3.3656,3.3643,3.366,3.3657,3.3662,3.3657,3.3656,3.3679,3.3676,3.3683,3.3673,3.3669,3.3667,3.3654,3.3666,3.3663,3.3672,3.3643,3.3671,3.3666,3.3671,3.3672,3.3671,3.3637,3.3636,3.3635,3.3635,0,3.3583,3.3594,3.3592,3.3594,3.3593,3.3595,3.3598,3.3594,3.3619,3.3615,3.361,3.3608,3.3605,3.36,3.36,3.3605,3.3623,3.3626,3.3621,3.3614,3.3609,3.3611,3.3699,3.3628,3.3628,3.3629,3.3629,3.3629,3.3526,3.3517,3.3528,3.3525,3.3531,3.3535,3.3527,3.354,3.3537,3.3537,3.3551,3.3543,3.355,3.3552,3.3555,3.3549,3.3561,3.3553,3.3551,3.3549,3.3545,3.3611,3.3548,3.3549,3.3549,3.3549,3.3549,0,3.3454,3.3463,3.3461,3.3467,3.3465,3.3486,3.3491,3.3488,3.3481,3.3487,3.3486,3.348,3.3476,3.3489,3.3487,3.3479,3.3488,3.3478,3.3478,3.3479,3.3533,3.3538,3.3471,3.3471,3.3471,3.3471,3.3471,3.3471,3.3416,3.3402,3.3415,3.3403,3.3412,3.3406,3.3408,3.3411,3.3416,3.3409,3.3407,3.3417,3.3426,3.3425,3.3422,3.3426,3.3424,3.3411,3.3417,3.3468,3.3475,3.3482,3.3487,3.341,3.341,3.3364,3.3364,3.3363]}]]